SCP
0 0 0 0 0 0 0 0 0 0 0 0 0 0 1 0 0 0 0 0 0 0 0 0 0 0 0 0 0 1 1 1 1 1 1 1 1 1
0 0 0 0 0 0 0 0 0 0 0 0 0 0 0 0 0 0 0 0 0 0 0 0 0 0 0 0 0 1 1 1 1 1 1 1 1 1
0 0 0 0 0 0 0 0 0 0 0 0 0 0 0 0 0 0 0 0 0 0 0 0 0 0 0 0 0 0 0 0 0 1 1 1 1 1
0 0 0 0 0 0 0 0 0 0 0 0 0 0 0 0 0 0 0 0 0 0 0 0 0 0 0 0 0 0 0 0 0 0 0 0 0 0
0 0 0 0 0 0 0 0 0 0 0 0 0 0 0 0 0 0 0 0 0 0 0 0 0 0 0 0 0 0 0 0 0 0 0 0 0 0
0 0 0 0 0 0 0 0 0 0 0 0 0 0 0 0 0 0 0 0 0 0 0 0 0 0 0 0 0 0 0 0 0 0 0 0 0 0
0 0 0 0 0 0 0 0 0 0 0 0 0 0 0 0 0 0 0 0 0 0 0 0 0 0 0 0 0 0 0 0 0 0 0 0 0 0
0 0 0 0 0 0 0 0 0 0 0 0 0 0 0 0 0 0 0 0 0 0 0 0 0 0 0 0 0 0 0 0 0 0 0 0 0 0
0 0 0 0 0 0 0 0 0 0 0 0 0 0 0 0 0 0 0 0 0 0 0 0 0 0 0 0 0 0 0 0 0 0 0 0 0 0
0 0 0 0 0 0 0 0 0 0 0 0 0 0 0 0 0 0 0 0 0 0 0 0 0 0 0 0 0 0 0 0 0 0 0 0 0 0
0 0 0 0 0 0 0 0 0 0 0 0 0 0 0 0 0 0 0 0 0 0 0 0 0 0 0 0 0 0 0 0 0 0 0 0 0 0
0 0 0 0 0 0 0 0 0 0 0 0 0 0 0 0 0 0 0 0 0 0 0 0 0 0 0 0 0 0 0 0 0 0 0 0 0 0
0 0 0 0 0 0 0 0 0 0 0 0 0 0 0 0 0 0 0 0 0 0 0 0 0 0 0 0 0 0 0 0 0 0 0 0 0 0
0 0 0 0 0 0 0 0 0 0 0 0 0 0 0 0 0 0 0 0 0 0 0 0 0 0 0 0 0 0 0 0 0 0 0 0 0 0
0 0 0 0 0 0 0 0 0 0 0 0 0 0 0 0 0 0 0 0 0 0 0 0 0 0 0 0 0 0 0 0 0 0 0 0 0 0
0 0 0 0 0 0 0 0 0 0 0 0 0 0 0 0 0 0 0 0 0 0 0 0 0 0 0 0 0 0 0 0 0 0 0 0 0 0
0 0 0 0 0 0 0 0 0 0 0 0 0 0 0 0 0 0 0 0 0 0 0 0 0 0 0 0 0 0 0 0 0 0 0 0 0 0
0 0 0 0 0 0 0 0 0 0 0 0 0 0 0 0 0 0 0 0 0 0 0 0 0 0 0 0 0 0 0 0 0 0 0 0 0 0
0 0 0 0 0 0 0 0 0 0 0 0 0 0 0 0 0 0 0 0 0 0 0 0 0 0 0 0 0 0 0 0 0 0 0 0 0 0
0 0 0 0 0 0 0 0 0 0 0 0 0 0 0 0 0 0 0 0 0 0 0 0 0 0 0 0 0 0 0 0 0 0 0 0 0 0
0 0 0 0 0 0 0 0 0 0 0 0 0 0 0 0 0 0 0 0 0 0 0 0 0 0 0 0 0 0 0 0 0 0 0 0 0 0
0 0 0 0 0 0 0 0 0 0 0 0 0 0 0 0 0 0 0 0 0 0 0 0 0 0 0 0 0 0 0 0 0 0 0 0 0 0
0 0 0 0 0 0 0 0 0 0 0 0 0 0 0 0 0 0 0 0 0 0 0 0 0 0 0 0 0 0 0 0 0 0 0 0 0 0
Wind_Speed
2 2 1 2 1 2 2 2 2 3 4 3 2 2 2 2 2 2 2 3 4 4 4 4 5 5 5 5 5 5 5 5 5 5 6 6 7 8
1 1 1 1 1 1 2 2 2 3 3 2 3 3 3 3 3 2 3 4 5 5 5 5 5 5 5 6 6 5 5 5 5 5 5 6 7 8
2 1 2 2 2 2 1 1 2 2 3 4 3 3 3 3 3 2 3 3 3 5 5 5 6 5 5 6 6 5 6 6 5 5 5 5 6 6
3 2 3 2 2 2 1 2 2 3 3 5 4 2 3 3 3 3 3 2 3 4 5 5 5 5 5 5 6 6 6 6 5 5 5 5 5 6
3 3 3 3 3 3 2 2 2 2 2 3 4 3 2 2 2 2 3 2 3 3 4 4 5 5 5 5 6 6 6 7 6 6 6 5 5 5
2 3 3 3 4 4 3 3 3 2 2 2 3 3 3 3 2 2 2 2 2 2 3 3 3 4 5 5 6 6 6 7 7 7 6 6 5 5
3 3 3 4 5 4 3 3 3 2 2 2 2 3 3 2 2 2 3 2 2 2 2 2 2 2 3 4 5 7 7 7 7 7 7 6 6 6
3 3 3 4 5 5 5 5 4 3 3 3 3 3 4 4 3 2 2 2 2 1 2 2 2 3 3 3 4 6 7 8 8 8 7 7 7 7
2 3 3 3 4 3 4 5 4 4 6 4 4 5 4 4 3 3 3 3 3 2 2 3 2 3 3 3 6 7 7 7 8 8 8 8 8 8
2 3 3 4 4 4 4 4 4 4 4 4 5 6 5 5 4 4 3 3 3 3 3 3 2 3 2 3 5 7 7 8 8 8 9 9 9 8
3 3 3 4 5 4 2 4 5 5 4 4 6 7 7 8 5 3 3 2 3 3 3 3 2 2 2 3 4 7 8 8 9 9 9 10 9 8
3 3 4 4 5 4 2 3 5 6 5 5 4 4 4 5 7 6 5 4 3 3 3 3 2 2 2 2 2 3 5 7 9 9 10 10 9 6
3 4 4 6 6 6 4 4 6 7 5 5 5 4 3 3 3 5 5 5 4 4 3 4 3 2 2 2 2 3 3 3 4 5 8 10 10 9
4 4 5 8 8 8 5 6 7 6 4 4 4 4 3 3 3 4 6 7 7 6 4 5 3 3 3 3 3 2 2 3 4 4 4 6 9 10
4 7 8 9 8 6 7 8 5 3 3 3 4 4 4 4 3 3 4 5 6 7 6 7 6 4 4 4 3 2 2 3 4 4 4 5 5 6
4 6 8 7 6 6 6 5 3 3 3 4 4 4 3 3 3 2 3 2 3 3 5 7 7 7 5 6 5 5 4 3 3 4 4 4 5 6
4 3 3 3 4 4 4 4 3 3 3 4 4 4 4 4 3 2 2 3 3 3 3 3 5 6 7 5 5 6 5 4 4 4 4 4 5 6
3 3 4 4 5 5 6 5 4 4 4 4 4 4 4 4 4 3 3 3 4 4 4 3 2 2 3 5 9 7 5 5 4 5 5 4 5 5
2 4 5 5 5 5 5 5 5 5 4 4 4 4 4 4 4 4 3 4 4 4 4 3 3 3 4 5 5 9 7 5 4 4 5 5 5 5
3 4 5 6 5 5 5 5 5 5 4 4 4 4 4 4 4 4 4 4 4 4 4 3 4 5 6 5 4 4 10 8 5 5 4 4 4 4
4 5 5 5 5 5 5 5 5 5 5 4 4 5 4 4 4 4 4 5 5 4 5 5 5 6 4 3 4 4 4 9 9 5 4 3 3 3
5 5 5 5 5 5 4 4 4 4 5 4 4 4 4 4 5 6 5 4 4 5 6 5 4 3 4 5 6 6 5 4 7 10 9 7 5 5
5 5 5 5 4 4 4 4 5 4 4 4 4 5 5 5 5 5 5 5 5 6 6 5 3 3 4 5 5 5 7 6 4 4 5 8 11 11
Wind_Direction
274 268 262 267 257 243 230 224 235 276 291 292 295 292 285 272 275 282 279 277 282 282 271 257 250 240 236 234 226 221 216 212 210 215 214 210 215 223
276 298 303 287 279 266 246 239 234 245 268 275 277 291 289 286 279 281 280 280 275 274 264 252 248 243 234 231 215 212 207 205 208 214 214 216 218 222
298 290 294 293 286 277 255 241 240 236 258 279 276 281 276 277 289 291 283 271 269 267 261 248 242 243 241 225 213 212 206 202 204 208 213 216 214 214
298 298 292 296 295 283 257 250 253 243 245 273 285 282 271 268 274 279 281 273 268 270 261 250 239 232 230 226 218 212 205 202 200 202 205 206 207 203
286 285 286 289 288 283 269 260 263 266 252 260 279 284 279 275 279 283 280 273 272 270 260 252 244 236 229 224 219 214 206 201 197 198 201 199 195 194
288 282 283 273 269 273 276 269 266 273 272 263 272 281 281 283 271 274 282 271 272 277 265 258 251 243 232 226 220 213 206 202 197 194 196 197 193 191
306 302 291 285 275 269 265 266 266 266 274 272 274 284 284 279 266 262 265 279 272 254 264 260 252 252 241 230 222 216 208 203 201 198 198 201 199 197
304 310 305 304 307 300 283 270 252 243 251 259 265 268 275 269 260 254 259 265 271 223 243 264 239 245 243 235 225 215 213 209 204 200 199 202 203 202
296 304 311 312 314 311 311 311 295 260 241 241 255 258 263 257 251 251 241 245 256 252 231 259 241 248 246 235 226 218 212 210 207 205 204 203 204 203
287 280 290 305 312 310 313 317 311 297 272 247 248 256 257 253 242 245 247 255 264 247 218 245 246 249 253 243 228 215 212 212 212 211 210 208 206 204
302 297 287 293 303 312 314 311 313 307 297 270 256 261 258 250 235 228 222 225 256 247 205 226 243 252 255 249 235 218 216 217 217 214 214 212 208 203
310 306 293 291 302 306 288 293 300 298 309 314 303 290 270 256 234 223 220 218 233 247 205 205 228 233 262 245 240 223 218 222 221 219 217 213 203 201
306 306 305 309 304 300 284 263 265 279 293 293 295 296 288 260 238 226 219 218 225 237 210 193 212 213 235 263 253 228 217 215 212 219 217 213 203 198
287 293 296 306 307 300 289 275 276 279 276 281 285 287 287 282 265 243 230 226 231 240 228 203 218 215 222 244 256 244 228 218 211 214 213 205 209 209
281 284 292 298 302 297 286 287 286 277 270 271 277 277 272 274 278 273 248 234 238 238 231 221 222 222 224 239 249 251 257 237 212 211 209 206 206 200
301 301 301 295 290 280 289 293 277 260 257 265 271 275 278 274 269 263 261 254 252 251 228 221 219 218 228 236 241 251 244 241 220 212 211 217 216 212
309 304 306 313 317 311 302 294 285 277 264 260 263 273 276 275 272 258 251 248 245 254 252 226 220 223 231 233 240 246 245 243 237 216 208 226 228 219
292 288 298 301 301 302 304 303 293 283 276 272 272 268 272 274 278 268 249 250 256 256 250 237 219 216 226 235 221 238 240 238 234 214 212 227 242 226
261 281 290 294 295 296 294 289 287 292 289 282 279 275 270 272 271 268 261 254 255 257 253 234 219 220 240 260 236 212 224 234 226 222 215 217 235 239
264 279 286 289 291 292 293 293 292 297 297 295 293 290 281 275 274 266 259 258 262 262 260 238 222 221 230 248 261 241 214 219 223 229 228 224 240 249
292 286 285 288 290 291 294 297 296 297 300 299 298 296 293 287 283 277 269 259 256 256 260 259 248 230 235 237 247 250 235 214 216 221 217 224 238 237
288 291 293 294 295 296 298 299 299 300 305 302 299 299 296 289 285 285 281 272 265 261 264 269 262 222 212 229 249 259 263 255 230 227 230 226 226 230
298 301 303 305 305 305 306 309 308 307 308 305 301 301 302 298 292 286 284 280 276 274 274 274 263 231 230 236 249 260 264 268 264 250 250 238 231 243